Regional Weather Roundup
Issued by NWS

Home | Current Version | Previous Version | Graphics & Text | Print | Product List | Glossary On
Versions: 1 2 3 4 5 6 7 8 9 10 11 12 13 14 15 16 17 18 19 20 21 22 23 24 25 26 27 28 29 30 31 32 33 34 35 36 37 38 39 40 41 42 43 44 45 46 47 48 49 50
000
ASUS43 KDTX 280510
RWRMI
MICHIGAN HOURLY REGIONAL WEATHER ROUNDUP
NATIONAL WEATHER SERVICE DETROIT/PONTIAC MI
100 AM EDT MON JUL 28 2014

NOTE: "FAIR" INDICATES FEW OR NO CLOUDS BELOW 12,000 FEET WITH NO
SIGNIFICANT WEATHER AND/OR OBSTRUCTION TO VISIBILITY.

MIZ047>049-052>055-059>063-066>070-074>076-081>083-280600-
SOUTHEAST LOWER MICHIGAN

CITY           SKY/WX    TMP DP  RH WIND       PRES   REMARKS
ADRIAN         PTCLDY    62  59  90 NW7       29.75S
ALMA           CLOUDY    62  60  93 NW7       29.79R
ANN ARBOR      MOCLDY    61  57  87 NW10      29.74F
BAD AXE        RAIN      62  61  97 N6        29.72R
DETROIT CITY   LGT RAIN  64  59  83 W8        29.72S
DETROIT        CLOUDY    61  59  94 W10       29.74R
FLINT          CLOUDY    63  59  87 NW10      29.74S
GROSSE ILE     LGT RAIN  63  59  88 NW9       29.72S
HILLSDALE      MOCLDY    63  63  98 NW9       29.77R
HOWELL         CLOUDY    60  59  96 NW7       29.75S

CITY           SKY/WX    TMP DP  RH WIND       PRES   REMARKS
JACKSON        CLOUDY    60  58  92 VRB5      29.77R
LAMBERTVILLE   MOCLDY    63  57  82 CALM      29.75R
LANSING        MOCLDY    60  59  96 NW7       29.78S
LAPEER         NOT AVBL
MASON          PTCLDY    60  58  95 NW6       29.77S
MONROE         MOCLDY    63  59  88 NW6       29.73R
MT. CLEMENS    CLOUDY    63  61  94 W7        29.69S
PORT HOPE        N/A     64  61  90 N17G23    29.70R
PORT HURON     LGT RAIN  61  61 100 W5        29.69S
TRI CITIES     LGT RAIN  64  61  90 N16       29.76S
YPSILANTI      MOCLDY    64  58  80 NW10      29.74S
$$
MIZ043>046-050>051-056>058-064>065-071>073-077>080-280600-
SOUTHWEST LOWER MICHIGAN

CITY           SKY/WX    TMP DP  RH WIND       PRES   REMARKS
BATTLE CREEK   CLOUDY    62  59  90 NW8       29.80R FOG
BENTON HARBOR  CLOUDY    62  58  86 VRB7      29.83R
BIG RAPIDS     HVY RAIN  62  62 100 N15G22    29.83R
COLDWATER      CLOUDY    64  60  87 NW8       29.78S
HOLLAND        MOCLDY    63  60  90 NW9       29.83R
GRAND RAPIDS   PTCLDY    65  62  90 NW9       29.80S
KALAMAZOO      CLOUDY    63  58  83 NW10      29.81R
MARSHALL       CLOUDY    62  60  93 W9G16     29.77S
MUSKEGON       CLOUDY    64  56  75 N15       29.85R
$$
MIZ016>042-280600-
NORTHERN LOWER MICHIGAN

CITY           SKY/WX    TMP DP  RH WIND       PRES   REMARKS
ALPENA         CLOUDY    65  55  70 N14       29.81R
BEAVER ISLAND  CLOUDY    58  52  81 N12G18    29.91R
BELLAIRE       CLOUDY    62  54  75 N6        29.86R
CADILLAC       CLOUDY    57  56  96 NW9       29.86R
CHARLEVOIX     CLOUDY    62  56  82 N14       29.91R
FRANKFORT      MOCLDY    60  52  73 N10G16    29.90R
GAYLORD        CLOUDY    60  54  80 N7        29.86R
GRAYLING       CLOUDY    62  59  91 N8        29.84S
HARBOR SPRINGS PTCLDY    59  53  81 N9        29.87R
HOUGHTON LAKE  CLOUDY    62  59  90 N8        29.83R
MANISTEE       PTCLDY    61  52  72 N10G16    29.89R
OSCODA         LGT RAIN  63  60  88 N13G21    29.76R
PELLSTON       MOCLDY    60  52  74 N9        29.88R
TRAVERSE CITY  CLOUDY    63  53  70 N8        29.86R
$$
MIZ007>008-015-280600-
EASTERN UPPER MICHIGAN

CITY           SKY/WX    TMP DP  RH WIND       PRES   REMARKS
KINROSS        CLEAR     57  52  82 N7        29.89R
MACKINAC ISLAN CLOUDY    57  54  89 N9G17     29.88R
NEWBERRY       CLEAR     49  46  87 NW7       29.93R
S. S. MARIE    CLEAR     58  47  66 NE9       29.89R
$$
MIZ004>006-011>014-085-280600-
CENTRAL UPPER MICHIGAN

CITY           SKY/WX    TMP DP  RH WIND       PRES   REMARKS
MANISTIQUE     CLEAR     51  46  84 N10G17    29.94R
ESCANABA       CLEAR     54  43  66 N9        29.98R
MENOMINEE      CLEAR     57  46  67 N13G20    29.97R
SAWYER-GWINN   CLEAR     50  44  79 N9        30.01R
$$
MIZ001>003-009>011-084-280600-
WESTERN UPPER MICHIGAN

CITY           SKY/WX    TMP DP  RH WIND       PRES   REMARKS
IRON MOUNTAIN  CLEAR     53  46  77 N7        30.01R
HOUGHTON       CLEAR     50  45  83 MISG      30.05R
COPPER HARBOR    N/A     53  45  74 NE3       30.04R
$$

ABBREVIATIONS USED IN REMARKS
   TC - TEMPERATURE IN CELSIUS
  WCI - WIND CHILL INDEX
   HX - HEAT INDEX
  VSB - VISIBILITY




USA.gov is the U.S. government's official web portal to all federal, state and local government web resources and services.